Location: Unspecified
(0.0000°N, 0.0000°E)
Time: 09:47:51
(UTC+00:00)

Vanguard 2 - Pass Details

Date: 21 October 2021
Orbit: 554 x 2936 km, 32.9° (Epoch: 06 December)

Event Time Altitude Azimuth Distance (km) Brightness Sun altitude
Rises 22:23:31 0° 235° (SW) 6,710 12.7 -67.0°
Reaches altitude 10° 22:27:54 10° 236° (SW) 5,757 12.2 -68.0°
Enters shadow 22:35:08 31° 237° (WSW) 4,219 11.2 -69.5°
Maximum altitude 22:46:03 86° 323° (NW) 2,652 - -71.8°
Drops below altitude 10° 22:59:27 10° 52° (NE) 4,424 - -74.3°
Sets 23:02:22 0° 53° (NE) 5,151 - -74.8°
